Szeged, Hungary

8:21 AM CET on December 12, 2017 (GMT +0100)
Szeged

Weather History for LHUD - October, 2013

Change the Weather History Date:

Saturday, October 26, 2013

  Actual Average (LRAR) Record (LRAR)
Temperature  
Mean Temperature 60 °F -  
Max Temperature 73 °F 51 °F 77 °F (1999)
Min Temperature 46 °F 36 °F 23 °F (1996)
Degree Days  
Heating Degree Days 6    
Growing Degree Days 10 (Base 50)    
Moisture  
Dew Point 52 °F    
Average Humidity 81    
Maximum Humidity 100    
Minimum Humidity 50    
Precipitation  
Precipitation 0.00 in 0.05 in - ()
Sea Level Pressure  
Sea Level Pressure 30.15 in    
Wind  
Wind Speed 3 mph ()    
Max Wind Speed 8 mph    
Max Gust Speed -    
Visibility 2.3 miles    
Events Fog    
Averages and records for this station are not official NWS values.
T = Trace of Precipitation, MM = Missing Value Source: Averaged Metar Reports

Daily Weather History Graph

Daily Weather History Graph

Search for Another Location

Airport or City:

Trip Planner

Search our weather history database for the weather conditions in past years. The results will help you decide how hot, cold, wet, or windy it might be!

Date:

Astronomy

Oct. 26, 2013 Rise Set
Actual Time 7:12 AM CEST 5:34 PM CEST
Civil Twilight 6:41 AM CEST 6:05 PM CEST
Nautical Twilight 6:05 AM CEST 6:40 PM CEST
Astronomical Twilight 5:31 AM CEST 7:15 PM CEST
Moon 11:30 PM CEST (10/26) 1:21 PM CEST (10/26)
Length of Visible Light 11h 24m
Length of Day
10h 22m
Waning Gibbous, 55% of the Moon is Illuminated
Oct 26
Waning Gibbous
Oct 27
Last Quarter
Nov 3
New
Nov 10
First Quarter
Nov 17
Full

Hourly Weather History & Observations

Time (CEST) Temp. Windchill Dew Point Humidity Pressure Visibility Wind Dir Wind Speed Gust Speed Precip Events Conditions
12:13 AM 51.8 °F - 50.0 °F 94% 30.18 in 0.4 mi South 1.2 mph - N/A Fog Patches of Fog
12:15 AM 51.8 °F - 50.0 °F 94% 30.15 in 0.4 mi South 1.2 mph - N/A Fog Patches of Fog
12:45 AM 51.8 °F - 50.0 °F 94% 30.15 in 0.1 mi South 2.3 mph - N/A Fog Fog
1:45 AM 48.2 °F - 48.2 °F 100% 30.15 in 0.2 mi SSE 1.2 mph - N/A Fog Fog
2:00 AM 49 °F - 47 °F 92% 30.17 in 0 mi SSE 2.2 mph - - Fog Partial Fog
2:45 AM 50.0 °F - 48.2 °F 94% 30.15 in 0.2 mi SSE 3.5 mph - N/A Fog Fog
3:45 AM 51.8 °F - 50.0 °F 94% 30.15 in 0.2 mi SE 5.8 mph - N/A Fog Fog
4:45 AM 48.2 °F - 48.2 °F 100% 30.15 in 0.1 mi SE 2.3 mph - N/A Fog Fog
5:45 AM 50.0 °F - 48.2 °F 94% 30.15 in 0.1 mi SE 5.8 mph - N/A Fog Fog
6:15 AM 50.0 °F - 48.2 °F 94% 30.15 in 0.1 mi SE 5.8 mph - N/A Fog Fog
6:45 AM 48.2 °F - 46.4 °F 93% 30.15 in 0.1 mi SSE 2.3 mph - N/A Fog Fog
7:15 AM 48.2 °F - 46.4 °F 93% 30.15 in 0.0 mi South 2.3 mph - N/A Fog Fog
7:45 AM 46.4 °F 45.2 °F 46.4 °F 100% 30.18 in 0.1 mi SE 3.5 mph - N/A Fog Fog
8:00 AM 47 °F - 46 °F 94% 30.18 in 0 mi SE 2.2 mph - - Fog Partial Fog
8:15 AM 48.2 °F - 48.2 °F 100% 30.18 in 0.7 mi SE 3.5 mph - N/A   Scattered Clouds
8:45 AM 51.8 °F - 50.0 °F 94% 30.18 in - SE 5.8 mph - N/A   Partly Cloudy
9:15 AM 53.6 °F - 51.8 °F 94% 30.18 in 2.8 mi SSE 5.8 mph - N/A   Partly Cloudy
9:45 AM 55.4 °F - 51.8 °F 88% 30.18 in 3.1 mi SSE 8.1 mph - N/A   Partly Cloudy
10:15 AM 59.0 °F - 53.6 °F 82% 30.18 in 3.1 mi SSE 5.8 mph - N/A   Partly Cloudy
10:45 AM 60.8 °F - 53.6 °F 77% 30.18 in 3.7 mi SSE 6.9 mph - N/A   Partly Cloudy
11:15 AM 64.4 °F - 53.6 °F 68% 30.18 in 3.7 mi South 4.6 mph - N/A   Scattered Clouds
11:45 AM 66.2 °F - 55.4 °F 68% 30.15 in 3.1 mi South 3.5 mph - N/A   Haze
12:15 PM 68.0 °F - 55.4 °F 64% 30.15 in 3.1 mi SSE 3.5 mph - N/A   Haze
12:45 PM 69.8 °F - 57.2 °F 64% 30.15 in 3.1 mi South 3.5 mph - N/A   Haze
1:15 PM 71.6 °F - 57.2 °F 60% 30.15 in 3.1 mi South 4.6 mph - N/A   Haze
1:45 PM 71.6 °F - 57.2 °F 60% 30.15 in 3.1 mi SSW 4.6 mph - N/A   Haze
2:00 PM 72 °F - 57 °F 50% 30.13 in 3 mi SSW 4.5 mph - -   Haze
2:15 PM 71.6 °F - 57.2 °F 60% 30.12 in 3.7 mi South 4.6 mph - N/A   Scattered Clouds
2:45 PM 73.4 °F - 55.4 °F 53% 30.12 in 3.7 mi South 4.6 mph - N/A   Partly Cloudy
3:15 PM 73.4 °F - 55.4 °F 53% 30.12 in 5.0 mi South 4.6 mph - N/A   Partly Cloudy
3:45 PM 73.4 °F - 57.2 °F 57% 30.12 in 4.3 mi South 3.5 mph - N/A   Partly Cloudy
4:15 PM 73.4 °F - 57.2 °F 57% 30.12 in 4.3 mi South 3.5 mph - N/A   Partly Cloudy
4:45 PM 71.6 °F - 57.2 °F 60% 30.12 in 5.6 mi South 3.5 mph - N/A   Partly Cloudy
5:15 PM 68.0 °F - 55.4 °F 64% 30.12 in 4.3 mi SSE 3.5 mph - N/A   Partly Cloudy
5:45 PM 68.0 °F - 55.4 °F 64% 30.12 in 3.1 mi SSE 3.5 mph - N/A   Haze
6:15 PM 64.4 °F - 53.6 °F 68% 30.15 in 4.3 mi SSE 2.3 mph - N/A   Partly Cloudy
6:45 PM 60.8 °F - 53.6 °F 77% 30.15 in 3.7 mi South 1.2 mph - N/A   Partly Cloudy
7:15 PM 60.8 °F - 53.6 °F 77% 30.15 in 5.0 mi South 3.5 mph - N/A   Partly Cloudy
7:45 PM 59.0 °F - 53.6 °F 82% 30.15 in 5.0 mi South 3.5 mph - N/A   Partly Cloudy
8:00 PM 58 °F - 54 °F 82% 30.15 in 5 mi South 4.5 mph - -   Partly Cloudy
8:15 PM 57.2 °F - 53.6 °F 88% 30.15 in 3.7 mi South 2.3 mph - N/A   Partly Cloudy
8:45 PM 57.2 °F - 53.6 °F 88% 30.15 in 3.7 mi South 2.3 mph - N/A   Partly Cloudy
9:15 PM 57.2 °F - 53.6 °F 88% 30.15 in 3.7 mi South 2.3 mph - N/A   Unknown
9:43 PM 55.4 °F - 51.8 °F 88% 30.15 in 0.5 mi South 2.3 mph - N/A Fog Fog
9:45 PM 55.4 °F - 51.8 °F 88% 30.15 in 0.5 mi South 2.3 mph - N/A Fog Fog
10:45 PM 53.6 °F - 50.0 °F 88% 30.15 in 1.2 mi SW 2.3 mph - N/A   Mist
11:42 PM 53.6 °F - 51.8 °F 94% 30.15 in 0.5 mi SSW 2.3 mph - N/A Fog Fog
11:45 PM 53.6 °F - 51.8 °F 94% 30.15 in 0.5 mi SSW 2.3 mph - N/A Fog Fog